Hourly Data Report for October 05, 2017

All times are specified in Local Standard Time (LST). Add 1 hour to adjust for Daylight Saving Time where and when it is observed.

FORT CHIPEWYAN
ALBERTA

58°46'02.000" N
111°07'02.000" W
238.00 m
3072655
71305
YPY

Download Data

Hourly Data (October 2017)
Hourly Data Report for October 5, 2017
Temp Definition
°C
Dew Point Temp Definition
°C
Rel Hum Definition
%
Wind Dir Definition
10's deg

Wind Spd Definition
km/h
Visibility Definition
km
Stn Press Definition
kPa
Hmdx Definition


Wind Chill Definition


Weather Definition


TIME
00:00 Legend Double Dagger 5.9 3.6 85 9 9 16.1 98.87     LegendNANA
01:00 Legend Double Dagger 5.8 3.8 87 9 9 16.1 98.83     LegendNANA
02:00 Legend Double Dagger 6.0 3.7 85 9 11 16.1 98.80     LegendNANA
03:00 Legend Double Dagger 6.3 3.5 82 10 15 16.1 98.76     LegendNANA
04:00 Legend Double Dagger 5.9 3.1 82 11 15 16.1 98.69     LegendNANA
05:00 Legend Double Dagger 5.2 3.4 88 9 11 16.1 98.64     LegendNANA
06:00 Legend Double Dagger 5.8 3.4 85 9 13 16.1 98.57     LegendNANA
07:00 Legend Double Dagger 6.2 3.4 82 9 9 16.1 98.51     LegendNANA
08:00 Legend Double Dagger 6.9 3.8 80 9 13 16.1 98.44     LegendNANA
09:00 Legend Double Dagger 8.2 3.9 74 9 17 16.1 98.37     LegendNANA
10:00 Legend Double Dagger 8.3 4.1 75 12 13 16.1 98.28     LegendNANA
11:00 Legend Double Dagger 7.9 4.0 76 11 17 16.1 98.21     LegendNANA
12:00 Legend Double Dagger 10.7 4.3 64 12 15 16.1 98.07     LegendNANA
13:00 Legend Double Dagger 10.1 4.5 68 11 18 16.1 97.94     LegendNANA
14:00 Legend Double Dagger 12.8 4.9 59 10 15 16.1 97.80     LegendNANA
15:00 Legend Double Dagger 14.0 5.6 57 9 18 16.1 97.66     LegendNANA
16:00 Legend Double Dagger 13.4 6.0 61 8 13 16.1 97.55     LegendNANA
17:00 Legend Double Dagger 10.3 6.5 77 5 13 16.1 97.47     LegendNANA
18:00 Legend Double Dagger 9.1 6.4 83 6 11 16.1 97.37     LegendNANA
19:00 Legend Double Dagger 7.9 6.0 88 7 8 16.1 97.29     LegendNANA
20:00 Legend Double Dagger 7.0 5.9 93 6 5 16.1 97.17     LegendNANA
21:00 Legend Double Dagger 4.4 3.4 93 25 5 16.1 97.11     LegendNANA
22:00 Legend Double Dagger 4.2 3.9 98 5 4 16.1 97.01     LegendNANA
23:00 Legend Double Dagger 5.9 4.7 92 25 5 16.1 96.93     LegendNANA

Notes on Data Quality.

Legend

  • E = Estimated
  • M = Missing
  • NA = Not Available
  • ‡ = Partner data that is not subject to review by the National Climate Archives
Date modified: